Home   Weather   Tours   Past weeks

Flag for France Past Weather in Tours, Centre-Val de Loire, France — Yesterday and Last 2 Weeks

Now
23 °F

Clear.


Feels Like: 16 °F
Forecast: 20 / 43 °F
Wind: 6 mph from Northeast

Location: Tours Airport

Current Time: Jan 20, 2017 at 7:04:37 am

Latest Report: Jan 20, 2017 at 6:00 am


Visibility: 4 mi

Pressure: 30.36 "Hg

Humidity: 86%

Dew Point: 19 °F

Location of ToursLocation

Past Weather in Tours — Graph

°F

Tours Temperature Yesterday

Maximum temperature yesterday: 32 °F (at 3:30 pm)
Minimum temperature yesterday: 23 °F (at 7:30 am)
Average temperature yesterday: 27 °F

High & Low Weather Summary for the Past Weeks

 TemperatureHumidityPressure
High52 °F (Jan 11, 3:30 pm)100% (Jan 5, 6:00 am)30.66 "Hg (Jan 5, 6:00 am)
Low23 °F (Jan 19, 7:30 am)41% (Jan 7, 2:30 pm)29.53 "Hg (Jan 12, 6:00 pm)
Average37 °F85%30.29 "Hg
* Reported Jan 5 5:00 am — Jan 20 5:30 am, Tours, Weather by CustomWeather, © 2017

Note: Actual official high and low records may vary slightly from our data, if they occured in-between our weather recording intervals... More about our weather records

Advertising

Tours Weather History for the Previous 24 Hours

Scroll right to see more
 ConditionsComfort  
Time TempWeatherWind HumidityBarometerVisibility
5:30 am
Fri, Jan 20
23 °FClear.6 mph86%30.36 "Hg4 mi
5:00 am23 °FIce fog.5 mph86%30.39 "Hg3 mi
4:30 am23 °FClear.6 mph86%30.39 "Hg4 mi
4:00 am23 °FClear.6 mph86%30.39 "Hg4 mi
3:30 am23 °FClear.5 mph86%30.39 "Hg4 mi
3:00 am23 °FClear.6 mph86%30.39 "Hg4 mi
2:30 am23 °FClear.5 mph86%30.39 "Hg4 mi
2:00 am25 °FClear.5 mph86%30.39 "Hg4 mi
1:30 am25 °FClear.5 mph86%30.39 "Hg4 mi
1:00 am25 °FClear.7 mph86%30.42 "Hg4 mi
12:30 am25 °FClear.8 mph86%30.42 "Hg4 mi
12:00 am25 °FClear.8 mph86%30.42 "Hg4 mi
11:30 pm
Thu, Jan 19
25 °FClear.9 mph86%30.42 "Hg4 mi
11:00 pm25 °FClear.7 mph86%30.45 "Hg4 mi
10:30 pm25 °FClear.7 mph86%30.45 "Hg4 mi
10:00 pm27 °FClear.9 mph80%30.45 "Hg5 mi
9:30 pm27 °FClear.7 mph80%30.42 "Hg5 mi
9:00 pm27 °FClear.7 mph80%30.42 "Hg5 mi
8:30 pm27 °FClear.7 mph80%30.45 "Hg5 mi
8:00 pm28 °FClear.9 mph74%30.42 "Hg6 mi
7:30 pm28 °FClear.8 mph74%30.42 "Hg6 mi
7:00 pm28 °FClear.6 mph80%30.42 "Hg6 mi
6:30 pm28 °FClear.7 mph80%30.42 "Hg6 mi
6:00 pm30 °FClear.7 mph75%30.42 "Hg10 mi
5:30 pm30 °FSunny.10 mph75%30.42 "Hg10 mi
5:00 pm30 °FSunny.12 mph69%30.42 "Hg10 mi
4:30 pm30 °FSunny.10 mph69%30.42 "Hg10 mi
4:00 pm32 °FSunny.10 mph64%30.42 "Hg10 mi
3:30 pm32 °FSunny.10 mph64%30.42 "Hg10 mi
3:00 pm30 °FPassing clouds.10 mph69%30.42 "HgN/A
2:30 pm30 °FPassing clouds.9 mph69%30.42 "HgN/A
2:00 pm30 °FSunny.9 mph69%30.42 "Hg10 mi
1:30 pm30 °FSunny.10 mph69%30.42 "Hg10 mi
1:00 pm28 °FPassing clouds.13 mph69%30.42 "HgN/A
12:30 pm28 °FPassing clouds.13 mph69%30.45 "HgN/A
12:00 pm28 °FPassing clouds.12 mph69%30.45 "HgN/A
11:30 am27 °FPartly sunny.14 mph74%30.45 "HgN/A
11:00 am27 °FPassing clouds.14 mph74%30.45 "HgN/A
10:30 am25 °FSunny.14 mph80%30.45 "Hg10 mi
10:00 am25 °FSunny.14 mph80%30.42 "Hg10 mi
9:30 am25 °FPassing clouds.12 mph74%30.42 "HgN/A
9:00 am23 °FSunny.10 mph80%30.42 "Hg10 mi
8:30 am23 °FClear.10 mph80%30.42 "Hg10 mi
8:00 am23 °FPassing clouds.12 mph80%30.42 "HgN/A
7:30 am23 °FClear.13 mph80%30.39 "Hg10 mi
7:00 am25 °FClear.13 mph74%30.39 "Hg10 mi
Weather by CustomWeather, © 2017

See weather overviewHow to use our weather pages